Regional Weather Roundup
Issued by NWS Boston, MA

Home | Current Version | Previous Version | Text Only | Print | Product List | Glossary On
Versions: 1 2 3 4 5 6 7 8 9 10 11 12 13 14 15 16 17 18 19 20 21 22 23 24 25 26 27 28 29 30 31 32 33 34 35 36 37 38 39 40 41 42 43 44 45 46 47 48 49 50
000
ASUS41 KBOX 261010
RWRBOX

REGIONAL WEATHER ROUNDUP
NATIONAL WEATHER SERVICE TAUNTON MA
500 AM EST MON JAN 26 2015

NOTE:  "FAIR" INDICATES FEW OR NO CLOUDS BELOW 12,000 FEET WITH NO
SIGNIFICANT WEATHER AND/OR OBSTRUCTIONS TO VISIBILITY.  THE FOLLOWING
OBSERVATION LOCATIONS DO NOT REPORT PRESENT WEATHER...PROVINCETOWN...
SMITHFIELD...BLOCK ISLAND...KEENE...AND OXFORD.

MAZALL-261100-
EASTERN MASSACHUSETTS

CITY           SKY/WX    TMP DP  RH WIND       PRES   REMARKS
BOSTON         CLOUDY    12  -2  53 N9        30.13R WCI   0
BEVERLY        PTCLDY     8  -4  58 N5        30.12R WCI   0
LAWRENCE       PTCLDY     8  -4  58 N8        30.13R WCI  -4
BEDFORD        PTCLDY     9  -4  55 N6        30.11R WCI  -1
BLUE HILL        N/A     10  -1  61 N7        30.05R WCI  -1
NORWOOD        MOCLDY    13  -2  51 N3        30.12R
MARSHFIELD     MOCLDY    21  14  73 N6        30.11S WCI  14
PLYMOUTH       MOCLDY    18   7  62 N9        30.08S WCI   7
TAUNTON        MOCLDY    18   3  52 N3        30.09R
NEW BEDFORD    MOCLDY    19   4  51 N8        30.07R WCI   9
$$

MAZALL-261100-
CAPE COD AND THE ISLANDS

CITY           SKY/WX    TMP DP  RH WIND       PRES   REMARKS
FALMOUTH       CLOUDY    23  16  74 N8G15     30.07R WCI  14
HYANNIS        CLOUDY    25  16  68 N8        30.05S WCI  16
CHATHAM        CLOUDY    26  17  68 VRB3      30.06F
PROVINCETOWN   CLOUDY    25  16  68 NE10      30.08F WCI  15
NANTUCKET      CLOUDY    28  19  69 N10       30.04F WCI  19
MARTHAS VNYRD  CLOUDY    24  13  62 N10       30.05F WCI  14
$$

MAZALL-261100-
CENTRAL AND WESTERN MASSACHUSETTS

CITY           SKY/WX    TMP DP  RH WIND       PRES   REMARKS
WORCESTER      MOCLDY     9  -1  64 NE6       30.00S WCI  -1
FITCHBURG      MOCLDY    11  -3  53 CALM      30.09R
ORANGE         MOCLDY     8  -3  61 CALM      30.07S
SPRINGFIELD    MOCLDY    13   2  59 N8        30.07S WCI   2
WESTFIELD      MOCLDY    14   1  56 NE8       30.07S WCI   3
NORTH ADAMS    MOCLDY     7   0  73 CALM      30.06S
PITTSFIELD     MOCLDY     9   0  67 N5        29.97S WCI   1
$$

RIZALL-261100-
RHODE ISLAND

CITY           SKY/WX    TMP DP  RH WIND       PRES   REMARKS
PROVIDENCE     MOCLDY    17   2  51 N15       30.08S WCI   2
NEWPORT        CLOUDY    20   3  48 NE10      30.07R WCI   9
BLOCK ISLAND   CLOUDY    25   9  50 NE10G17   30.03S WCI  15
SMITHFIELD     MOCLDY    12  -2  52 NE10      30.04S WCI  -1
WESTERLY       CLOUDY    22   5  48 NE5       30.07R WCI  16
$$

CTZALL-261100-
CONNECTICUT

CITY           SKY/WX    TMP DP  RH WIND       PRES   REMARKS
BRADLEY INTL   MOCLDY    16   1  51 N9        30.07R WCI   4
HARTFORD       CLOUDY    18   6  59 VRB6      30.09R WCI  10
BRIDGEPORT     CLOUDY    22   8  55 NE12      30.05S WCI  10
DANBURY        CLOUDY    18   2  49 NE10      30.03F WCI   6
GROTON         CLOUDY    21   5  50 NE10      30.06S WCI  10
NEW HAVEN      CLOUDY    21   8  57 NE10      30.05S WCI  10
CHESTER        CLOUDY    21   9  58 NE5       30.04S WCI  15
MERIDEN        CLOUDY    19   5  54 N10       30.07R WCI   7
WILLIMANTIC    CLOUDY    19   4  51 N6        30.07R WCI  11
OXFORD         CLOUDY    18   0  45 E10       30.01R WCI   6
$$

MEZ002-015-021-024-NHZ003-005-008-011-012-014-VTZ005-008-261100-
NORTHERN NEW ENGLAND

CITY           SKY/WX    TMP DP  RH WIND       PRES   REMARKS
PORTLAND ME    PTCLDY     4  -6  63 W3        30.13R
BANGOR ME      CLEAR      2  -7  66 NW8       30.10R WCI -12
CONCORD NH     MOCLDY     6  -6  57 N5        30.10R WCI  -3
MANCHESTER NH  CLOUDY     8  -4  58 N7        30.09S WCI  -3
NASHUA NH        N/A      9  -4  55 N8        30.11S WCI  -3
PORTSMOUTH NH  MOCLDY     8  -5  57 NW6       30.11R WCI  -3
JAFFREY NH     MOCLDY     6  -5  60 VRB3      30.02S
KEENE NH       MOCLDY     9  -2  61 N9        30.08F WCI  -5
BURLINGTON VT  PTCLDY    -2  -8  76 CALM      30.15S
MT. WASHINGTON MOCLDY    -2 -26  32 NW26        N/A  WCI -28
$$

NYZ052-076-261100-
EASTERN NEW YORK

CITY           SKY/WX    TMP DP  RH WIND       PRES   REMARKS
ALBANY         CLOUDY    10  -2  58 N9        30.11R WCI  -3
NEW YORK CITY  CLOUDY    24  10  55 NE16      30.02F WCI  11
$$

ANZALL-261100-
MARINE OBSERVATIONS

STATION/POSITION TIME  TEMP    WIND        PRES    VSBY  WAVE
                       AIR SEA DIR/SP/G                  HT/PER
                 (UTC) (F)     (DEG/KT/KT) (MB)    (MI)  (FT/S)
BOSTON BUOY      0950   18 40  350/ 12/ 16 1019.3R         3/12
BUZZARDS BAY     0900           40/ 16/ 19 1018.3R
NANTUCKET SOUND  0950   27 35   20/ 16/ 19 1016.9F         2/ 3
MASS BAY-STELLWA 0904   20 42  350/ 12/ 16   N/A    1 7/8  2/ 5
ISLE OF SHOALS   0900   13     360/ 10/ 12 1018.9R
S OF BLOCK IS    0908      45                N/A           5/11
$$

......................KEY.........................
  SKY/WX - SKY CONDITION/PRESENT WEATHER
  TMP    - TEMPERATURE IN FAHRENHEIT
  DWPT   - DEWPOINT IN FAHRENHEIT
  RH     - RELATIVE HUMIDITY IN PERCENT
  WIND   - DIRECTION AND SPEED IN MPH
  PRES   - MEAN SEA LEVEL PRESSURE IN INCHES OF HG
  WCI    - WIND CHILL INDEX
  VSB    - VISIBILITY IN MILES
  HX     - HEAT INDEX
  TC     - TEMPERATURE IN CELSIUS
  VRB    - VARIABLE WIND DIRECTION
  N/A    - NOT AVAILABLE


USA.gov is the U.S. government's official web portal to all federal, state and local government web resources and services.